[[{"header":{"parameterUnit":"m.s-1","parameterCategory":1,"la1":30.2991,"la2":30.254,"lo1":-89.0895,"lo2":-89.0444,"dy":0.0017,"dx":0.0017,"nx":28,"ny":28,"refTime":"2025-04-14T09:00:00:Z","depth":0,"parameterNumber":2,"parameterNumberName":"U-component_of_WINDS"},"data":[0,0,0,0,0,0,0,0,0,0,0,0,0,0,0,0,0,0,0,0,0,0,0,0,0,0,0,0,0,0,0,0,0,0,0,0,0,0,0,0,0,0,0,0,0,0,0,0,0,0,0,0,0,0,0,0,0,0,3.832,3.8321,0,3.8391,3.8392,3.8393,3.8329,3.8327,3.8324,3.8322,3.8399,3.8403,3.8408,0,0,0,0,0,0,0,0,0,0,0,0,0,3.8135,3.8139,3.832,3.8321,3.8322,3.8391,3.8392,3.8393,3.833,3.8327,3.8323,3.832,3.8398,3.8403,3.8408,0,0,0,0,0,0,0,0,0,0,0,0,0,3.8212,3.814,3.832,3.8299,3.8297,3.8391,3.8392,3.8393,3.833,3.8326,3.8323,3.8319,3.8396,3.8402,3.8409,3.8529,0,0,3.843,3.8432,0,0,0,0,0,0,0,0,3.8208,3.8219,3.8301,3.83,3.8299,3.8347,3.8355,3.8439,3.8331,3.8318,3.8321,3.8317,3.8385,3.8393,3.8415,3.8532,3.8536,3.843,3.8434,3.8437,3.8439,0,0,0,0,0,0,0,3.8202,3.8215,3.8348,3.8302,3.8301,3.8287,3.8294,3.8371,3.8373,3.8319,3.8314,3.8323,3.8384,3.8408,3.8416,3.8537,3.843,3.8436,3.844,3.8443,3.8758,3.8762,0,0,0,0,0,0,3.8199,3.8211,3.8346,3.835,3.8243,3.8294,3.8301,3.8336,3.8372,3.8373,3.8327,3.832,3.8399,3.8408,3.8419,3.8562,3.8437,3.8443,3.8447,3.8754,3.8759,3.8764,0,0,0,0,0,0,3.8195,3.8211,3.8343,3.828,3.8295,3.8301,3.8341,3.8339,3.8363,3.8378,3.8378,3.8351,3.8396,3.8409,3.8502,3.8563,3.8446,3.8453,3.8749,3.8755,3.8761,3.8849,0,0,0,0,0,0,3.819,3.821,3.8254,3.8281,3.8299,3.8424,3.8344,3.8343,3.8375,3.8367,3.84,3.8402,3.8394,3.8492,3.8509,3.857,3.8458,3.8743,3.8752,3.8759,3.884,3.8857,3.8872,0,0,0,0,0,3.8183,3.8277,3.8257,3.8274,3.8354,3.8428,3.8438,3.8425,3.838,3.8425,3.8435,3.8401,3.8554,3.8502,3.852,3.8585,3.8739,3.8749,3.8759,3.8833,3.8854,3.8871,0,0,0,0,0,0,3.8259,3.828,3.8258,3.8363,3.8394,3.8417,3.8473,3.8448,3.8493,3.8484,3.8468,3.8476,3.8574,3.8589,3.8531,3.8704,3.864,3.8653,3.869,3.871,3.8725,3.872,3.8463,0,0,0,0,0,3.8287,3.8343,3.836,3.8451,3.8467,3.8468,3.8499,3.8487,3.8519,3.8532,3.8548,3.8582,3.8638,3.8675,3.8727,3.8842,3.885,3.8896,3.8912,3.8925,3.8937,3.9,3.9022,3.8796,3.8796,3.8795,0,0,3.8347,3.8366,3.8402,3.8466,3.8488,3.8549,3.8479,3.8546,3.8591,3.8543,3.863,3.8644,3.8681,3.8786,3.8833,3.8801,3.9001,3.8937,3.8948,3.8953,3.9013,3.9034,3.9053,3.8802,3.8801,3.88,0,0,3.8487,3.8506,3.8584,3.8608,3.8643,3.8643,3.8662,3.8689,3.8696,3.8784,3.8749,3.8804,3.89,3.8927,3.8954,3.9106,3.9078,3.9124,3.9207,3.9269,3.9286,3.9302,3.9357,3.9377,3.9136,3.9136,3.9137,0,3.8557,3.8644,3.8628,3.8697,3.8726,3.8685,3.8765,3.879,3.884,3.8863,3.8826,3.8946,3.8968,3.908,3.9117,3.914,3.9162,3.912,3.9285,3.93,3.9315,3.9367,3.9387,3.9142,3.9141,3.9141,3.914,0,3.873,3.8791,3.885,3.8899,3.8935,3.901,3.9006,3.9046,3.9031,3.9035,3.9127,3.9152,3.9208,3.9234,3.922,3.9344,3.9323,3.9287,3.9222,3.9342,3.9391,3.941,3.915,3.9148,3.9146,3.9145,0,0,3.8917,3.8956,3.8978,3.9,3.9036,3.9084,3.9158,3.9212,3.9246,3.9283,3.9345,3.9428,3.9394,3.9425,3.9415,3.9469,3.9589,3.9425,3.9426,3.9455,3.9728,3.9755,3.9778,3.957,3.9574,3.9577,3.9725,0,3.9058,3.9183,3.9171,3.9291,3.9349,3.9311,3.9375,3.9405,3.9412,3.9463,3.9472,3.9531,3.9481,3.95,3.9552,3.9563,3.9643,3.9552,3.9629,3.9632,3.962,3.9804,3.9833,3.9971,3.9744,3.9747,3.9749,0,3.9239,3.9281,3.9406,3.9434,3.9458,3.9515,3.9564,3.9613,3.9648,3.9649,3.9684,3.9665,3.9741,3.9675,3.978,3.9719,3.975,3.976,3.9765,3.9772,3.9698,3.9815,4.0014,4.0035,3.9779,3.9777,3.9774,0,3.9363,3.9452,3.9538,3.9558,3.9593,3.9634,3.9651,3.9681,3.9715,3.9759,3.9781,3.9834,3.9863,3.9906,3.9902,3.9854,4.001,3.9943,4.0014,4.0014,4.0048,4.0046,4.0255,4.0069,4.0068,4.0068,4.0067,0,3.9522,3.96,3.9594,3.9648,3.9735,3.9721,3.9809,3.9821,3.9849,3.9905,3.9876,3.993,3.9922,3.9977,3.9975,4.0063,4.0077,4.0081,4.0079,4.0083,4.0083,4.0103,4.0093,4.0073,4.0072,4.0071,4.007,0,3.9675,3.9674,3.9766,3.9792,3.98,3.9863,3.9886,3.9937,3.9942,4.0014,4.003,4.0038,4.0101,4.0102,4.0175,4.0173,4.0281,4.0269,4.0269,4.0266,4.0337,4.0331,4.0566,4.0597,4.0391,4.0393,4.0395,0,3.9776,3.9835,3.9867,3.9902,3.9921,3.9977,4.0011,4.0002,4.0039,4.0083,4.0129,4.0189,4.0237,4.034,4.0354,4.0409,4.0398,4.0477,4.0407,4.0409,4.04,4.0396,4.0402,4.0491,4.0493,4.0495,4.0497,0,3.9955,3.9952,4.0001,4.0051,4.0092,4.0132,4.0168,4.0199,4.0193,4.0237,4.03,4.0337,4.041,4.0471,4.0525,4.0544,4.0521,4.0519,4.0538,4.0542,4.054,4.0542,4.0306,4.0513,4.0512,4.051,4.0509,4.0509,4.0085,4.0136,4.0167,4.0223,4.0249,4.0284,4.0333,4.0344,4.0396,4.0454,4.0446,4.0517,4.0552,4.0622,4.0646,4.0703,4.0675,4.0703,4.071,4.0717,4.0725,4.0531,4.0713,4.0712,4.0712,4.0711,4.0711,0,4.0263,4.0281,4.0333,4.0384,4.0429,4.0401,4.044,4.048,4.0542,4.0575,4.0622,4.0696,4.0755,4.0774,4.0831,4.0873,4.0864,4.0889,4.0886,4.0891,4.0746,4.0723,4.0896,4.0896,4.0896,4.0896,4.0896,4.0895,4.0361,4.0446,4.0446,4.0545,4.0563,4.063,4.0655,4.0688,4.0714,4.0797,4.0846,4.0857,4.0885,4.0945,4.0999,4.1003,4.1026,4.1055,4.1055,4.0919,4.0901,4.0883,4.0862,4.106,4.106,4.1195,4.1196,4.1197]},{"header":{"parameterUnit":"m.s-1","parameterCategory":1,"la1":30.2991,"la2":30.254,"lo1":-89.0895,"lo2":-89.0444,"dy":0.0017,"dx":0.0017,"nx":28,"ny":28,"refTime":"2025-04-14T09:00:00:Z","depth":0,"parameterNumber":3,"parameterNumberName":"V-component_of_WINDS"},"data":[0,0,0,0,0,0,0,0,0,0,0,0,0,0,0,0,0,0,0,0,0,0,0,0,0,0,0,0,0,0,0,0,0,0,0,0,0,0,0,0,0,0,0,0,0,0,0,0,0,0,0,0,0,0,0,0,0,0,-1.4761,-1.4763,0,-1.4904,-1.4906,-1.4907,-1.4891,-1.4888,-1.4886,-1.4884,-1.5035,-1.5041,-1.5047,0,0,0,0,0,0,0,0,0,0,0,0,0,-1.4479,-1.4484,-1.4761,-1.4763,-1.4765,-1.4904,-1.4906,-1.4908,-1.4891,-1.4888,-1.4886,-1.4883,-1.5033,-1.504,-1.5048,0,0,0,0,0,0,0,0,0,0,0,0,0,-1.461,-1.4486,-1.4761,-1.4773,-1.4775,-1.4903,-1.4906,-1.4908,-1.4892,-1.4888,-1.4885,-1.4882,-1.5031,-1.504,-1.5049,-1.5175,0,0,-1.5077,-1.5081,0,0,0,0,0,0,0,0,-1.4602,-1.462,-1.4769,-1.4772,-1.4775,-1.4876,-1.4862,-1.4998,-1.4893,-1.4848,-1.4884,-1.488,-1.4985,-1.4998,-1.5032,-1.5182,-1.5188,-1.5078,-1.5083,-1.5087,-1.509,0,0,0,0,0,0,0,-1.4593,-1.4614,-1.4818,-1.4772,-1.4775,-1.4773,-1.4788,-1.4887,-1.4934,-1.4851,-1.4851,-1.4867,-1.4986,-1.5024,-1.5036,-1.5191,-1.5077,-1.5086,-1.5091,-1.5095,-1.5454,-1.5458,0,0,0,0,0,0,-1.458,-1.4606,-1.4813,-1.4822,-1.4678,-1.4781,-1.4797,-1.4847,-1.4933,-1.4943,-1.487,-1.4866,-1.5009,-1.5025,-1.5041,-1.5197,-1.5087,-1.5096,-1.5101,-1.545,-1.5455,-1.5459,0,0,0,0,0,0,-1.4574,-1.4599,-1.4807,-1.4714,-1.474,-1.4789,-1.4846,-1.4852,-1.4889,-1.4947,-1.4956,-1.49,-1.5007,-1.5028,-1.5142,-1.5202,-1.51,-1.5108,-1.5445,-1.5452,-1.5457,-1.5509,0,0,0,0,0,0,-1.4566,-1.4597,-1.4644,-1.4715,-1.4745,-1.4905,-1.4849,-1.4857,-1.4905,-1.4901,-1.4977,-1.4987,-1.5006,-1.5128,-1.5151,-1.5213,-1.5116,-1.544,-1.5448,-1.5455,-1.5502,-1.5516,-1.5527,0,0,0,0,0,-1.4556,-1.4653,-1.4647,-1.4672,-1.4805,-1.4908,-1.4926,-1.4945,-1.4909,-1.4959,-1.4996,-1.4984,-1.5191,-1.514,-1.5166,-1.5231,-1.5437,-1.5446,-1.5455,-1.5496,-1.5513,-1.5527,0,0,0,0,0,0,-1.459,-1.4663,-1.4656,-1.4779,-1.4837,-1.4905,-1.4967,-1.4962,-1.5033,-1.5026,-1.5048,-1.5066,-1.5182,-1.5217,-1.5159,-1.5359,-1.5309,-1.5324,-1.5332,-1.5349,-1.5361,-1.5352,-1.5123,0,0,0,0,0,-1.4611,-1.4686,-1.4747,-1.4849,-1.4879,-1.4918,-1.4964,-1.4973,-1.5035,-1.5061,-1.5106,-1.5168,-1.5248,-1.53,-1.5375,-1.5506,-1.5524,-1.5564,-1.5576,-1.5587,-1.56,-1.5675,-1.5694,-1.5489,-1.5489,-1.5488,0,0,-1.4656,-1.4706,-1.4752,-1.4857,-1.4904,-1.4984,-1.4939,-1.5025,-1.5086,-1.5074,-1.5185,-1.5221,-1.5292,-1.5415,-1.5472,-1.5449,-1.566,-1.5598,-1.5606,-1.5614,-1.5686,-1.5706,-1.5723,-1.5495,-1.5494,-1.5493,0,0,-1.4781,-1.4824,-1.4915,-1.4963,-1.5033,-1.5059,-1.5081,-1.515,-1.5173,-1.5284,-1.5278,-1.535,-1.5485,-1.5537,-1.5581,-1.5726,-1.5719,-1.575,-1.5818,-1.5891,-1.5907,-1.5921,-1.5976,-1.5995,-1.5762,-1.5762,-1.5762,0,-1.4829,-1.4948,-1.4963,-1.5051,-1.5099,-1.509,-1.5185,-1.523,-1.5323,-1.5357,-1.5328,-1.5499,-1.5546,-1.5683,-1.5719,-1.5753,-1.5782,-1.5743,-1.5903,-1.5918,-1.5931,-1.5984,-1.6004,-1.5766,-1.5766,-1.5765,-1.5765,0,-1.5005,-1.5088,-1.5153,-1.5242,-1.5297,-1.5387,-1.5419,-1.5472,-1.5477,-1.5506,-1.5621,-1.5677,-1.5765,-1.5798,-1.5804,-1.5937,-1.5921,-1.5897,-1.5848,-1.5954,-1.6005,-1.6025,-1.5771,-1.577,-1.5769,-1.5768,0,0,-1.5156,-1.5252,-1.5276,-1.5317,-1.5395,-1.546,-1.5551,-1.5636,-1.5683,-1.5747,-1.5826,-1.594,-1.592,-1.597,-1.5981,-1.6045,-1.616,-1.6014,-1.6016,-1.6042,-1.6314,-1.6333,-1.6356,-1.6154,-1.6158,-1.6161,-1.6309,0,-1.5291,-1.545,-1.5468,-1.5611,-1.5689,-1.5682,-1.5762,-1.5819,-1.5849,-1.5921,-1.5954,-1.6037,-1.6001,-1.6032,-1.6094,-1.6133,-1.6215,-1.6122,-1.6231,-1.6235,-1.6217,-1.6382,-1.6403,-1.654,-1.6328,-1.6332,-1.6334,0,-1.5469,-1.5538,-1.5689,-1.5757,-1.5791,-1.5862,-1.5942,-1.601,-1.6076,-1.6093,-1.6149,-1.6153,-1.6249,-1.6193,-1.6328,-1.6264,-1.631,-1.6336,-1.6342,-1.6356,-1.6293,-1.6404,-1.6583,-1.6605,-1.6364,-1.6362,-1.636,0,-1.5569,-1.5699,-1.5806,-1.5841,-1.5922,-1.5973,-1.601,-1.6071,-1.6122,-1.6193,-1.6226,-1.6307,-1.6353,-1.6417,-1.6443,-1.64,-1.6578,-1.6524,-1.6598,-1.6598,-1.6639,-1.6637,-1.6832,-1.6662,-1.6662,-1.6661,-1.6661,0,-1.572,-1.5813,-1.5852,-1.5919,-1.6025,-1.6044,-1.6148,-1.6183,-1.6238,-1.6313,-1.6311,-1.6382,-1.6411,-1.6487,-1.6508,-1.6619,-1.6638,-1.6657,-1.6663,-1.666,-1.6658,-1.6693,-1.6685,-1.6667,-1.6666,-1.6665,-1.6664,0,-1.585,-1.5879,-1.5997,-1.6064,-1.6083,-1.6158,-1.6217,-1.6282,-1.631,-1.6406,-1.6429,-1.6474,-1.6564,-1.6596,-1.6705,-1.6719,-1.6849,-1.6844,-1.6827,-1.6829,-1.6902,-1.6897,-1.713,-1.7163,-1.6968,-1.697,-1.6971,0,-1.5946,-1.6018,-1.6092,-1.6142,-1.618,-1.6259,-1.6311,-1.6333,-1.6387,-1.6468,-1.6525,-1.6613,-1.6686,-1.683,-1.6874,-1.6958,-1.6958,-1.7033,-1.6971,-1.6966,-1.6964,-1.6961,-1.697,-1.7047,-1.7049,-1.705,-1.7052,0,-1.6115,-1.6126,-1.6199,-1.6279,-1.634,-1.6404,-1.6466,-1.6507,-1.6539,-1.66,-1.6691,-1.6747,-1.6858,-1.6948,-1.7034,-1.7074,-1.707,-1.707,-1.7093,-1.7093,-1.7081,-1.7092,-1.6863,-1.7066,-1.7065,-1.7063,-1.7063,-1.7062,-1.6234,-1.6298,-1.6361,-1.6444,-1.6492,-1.6551,-1.6616,-1.6652,-1.6728,-1.682,-1.6828,-1.6927,-1.6992,-1.7107,-1.7151,-1.7231,-1.721,-1.7241,-1.725,-1.7259,-1.7266,-1.7065,-1.7246,-1.7245,-1.7245,-1.7245,-1.7245,0,-1.6405,-1.6445,-1.6521,-1.6608,-1.6673,-1.666,-1.6729,-1.6785,-1.6872,-1.6932,-1.7004,-1.711,-1.7196,-1.7247,-1.7334,-1.7389,-1.7389,-1.7411,-1.741,-1.742,-1.7278,-1.7251,-1.741,-1.741,-1.741,-1.741,-1.741,-1.7409,-1.6503,-1.6612,-1.6631,-1.6766,-1.6805,-1.6901,-1.6942,-1.6996,-1.7045,-1.7163,-1.7235,-1.7266,-1.7324,-1.7416,-1.7496,-1.7508,-1.7543,-1.7567,-1.7579,-1.7446,-1.7429,-1.7413,-1.7389,-1.7574,-1.7574,-1.7715,-1.7716,-1.7717]}]]